STARLINK-35098

Last updated on Tue Sep 16 2025 00:02:08 GMT+0000 (Coordinated Universal Time)

1 65476U 25195U 25258.02384996 -.01995571 00000+0 -13865-1 0 9995 2 65476 53.1556 0.1744 0003380 30.3668 329.7549 15.77085377 2990
UTC large
Height (km)
Speed (km/s)
/
Latitude / Longitude
Inclination (degrees)
Orbital Period (minutes)
Azimuth
Elevation
Range (km)
Doppler Factor

Next 0 passes for location: London (51.5072 / 0.1276)

Sorry there are no passes over London.